Home   Weather   Jackson   Past weeks

Flag for USA Past Weather in Jackson, Mississippi, USA — Yesterday and Last 2 Weeks

Now
84 °F

Broken clouds.


Feels Like: 88 °F
Forecast: 72 / 87 °F
Wind: 23 mph from South

Location: Hawkins Field

Current Time: Apr 29, 2017 at 12:40:01 pm

Latest Report: Apr 29, 2017 at 11:53 am


Visibility: 10 mi

Pressure: 29.89 "Hg

Humidity: 63%

Dew Point: 70 °F

Location of JacksonLocation

Past Weather in Jackson — Graph

°F

Jackson Temperature Yesterday

Maximum temperature yesterday: 89 °F (at 2:53 pm)
Minimum temperature yesterday: 60 °F (at 12:53 am)
Average temperature yesterday: 75 °F

High & Low Weather Summary for the Past Weeks

 TemperatureHumidityPressure
High89 °F (Apr 28, 2:53 pm)97% (Apr 18, 3:44 am)30.21 "Hg (Apr 18, 3:44 am)
Low51 °F (Apr 24, 3:53 am)37% (Apr 19, 12:53 pm)29.55 "Hg (Apr 26, 6:53 pm)
Average69 °F76%29.95 "Hg
* Reported Apr 14 11:53 am — Apr 29 11:32 am, Jackson, Weather by CustomWeather, © 2017

Note: Actual official high and low records may vary slightly from our data, if they occured in-between our weather recording intervals... More about our weather records

Advertising

Jackson Weather History for the Previous 24 Hours

Scroll right to see more
 ConditionsComfort  
Time TempWeatherWind HumidityBarometerVisibility
11:32 am
Sat, Apr 29
85 °FPartly sunny.23 mph61%29.92 "Hg10 mi
11:02 am82 °FPartly sunny.21 mph67%29.92 "Hg10 mi
10:53 am84 °FBroken clouds.22 mph65%29.89 "Hg10 mi
10:13 am81 °FPartly sunny.21 mph69%29.91 "Hg10 mi
9:53 am81 °FBroken clouds.20 mph69%29.88 "Hg10 mi
9:12 am80 °FMore clouds than sun.17 mph71%29.91 "Hg10 mi
8:53 am78 °FMostly cloudy.24 mph76%29.88 "Hg10 mi
7:53 am77 °FMostly cloudy.16 mph77%29.87 "Hg10 mi
6:53 am76 °FMostly cloudy.14 mph80%29.86 "Hg9 mi
5:53 am76 °FOvercast.14 mph80%29.84 "Hg10 mi
4:53 am75 °FPassing clouds.13 mph82%29.83 "Hg9 mi
4:16 am74 °FPassing clouds.12 mph85%29.86 "Hg9 mi
3:53 am74 °FPassing clouds.13 mph85%29.85 "Hg10 mi
3:18 am75 °FPassing clouds.13 mph82%29.88 "Hg10 mi
1:53 am76 °FPassing clouds.16 mph80%29.89 "Hg10 mi
1:00 am77 °FPartly cloudy.17 mph79%29.93 "Hg9 mi
12:32 am77 °FPassing clouds.14 mph79%29.93 "Hg9 mi
11:53 pm
Fri, Apr 28
78 °FPartly cloudy.15 mph76%29.90 "Hg9 mi
10:53 pm77 °FPassing clouds.13 mph82%29.90 "Hg9 mi
10:22 pm78 °FPassing clouds.13 mph79%29.92 "Hg10 mi
9:53 pm78 °FPassing clouds.12 mph76%29.88 "Hg10 mi
8:53 pm80 °FPassing clouds.17 mph71%29.86 "Hg10 mi
7:53 pm81 °FPassing clouds.15 mph69%29.83 "Hg10 mi
6:53 pm84 °FPassing clouds.16 mph61%29.81 "Hg10 mi
5:53 pm85 °FPassing clouds.15 mph59%29.80 "Hg10 mi
4:53 pm86 °FPartly sunny.23 mph57%29.80 "Hg10 mi
3:53 pm88 °FPassing clouds.26 mph54%29.80 "Hg10 mi
2:53 pm89 °FPassing clouds.17 mph52%29.80 "Hg10 mi
1:53 pm88 °FPassing clouds.22 mph54%29.80 "Hg10 mi
12:53 pm87 °FPassing clouds.23 mph57%29.80 "Hg10 mi
Weather by CustomWeather, © 2017

See weather overviewHow to use our weather pages